Hourly Data Report for October 31, 2016

All times are specified in Local Standard Time (LST). Add 1 hour to adjust for Daylight Saving Time where and when it is observed.

GRISE FIORD CLIMATE
NUNAVUT

76°25'22.040" N
82°54'08.020" W
44.50 m
2402351
71971
NGC

Download Data

Hourly Data (October 2016)
Hourly Data Report for October 31, 2016
Temp Definition
°C
Dew Point Temp Definition
°C
Rel Hum Definition
%
Wind Dir Definition
10's deg

Wind Spd Definition
km/h
Visibility Definition
km
Stn Press Definition
kPa
Hmdx Definition


Wind Chill Definition


Weather Definition


TIME
00:00 -22.5 -24.5 84 5 5   101.29   -27 LegendNANA
01:00 -20.9 -22.5 87 36 5   101.26   -25 LegendNANA
02:00 -20.5 -22.4 85 4 4   101.25   -24 LegendNANA
03:00 -19.4 -20.8 89 0 1   101.22   -20 LegendNANA
04:00 -19.1 -21.8 79 7 2   101.15   -21 LegendNANA
05:00 -18.9 -21.7 78 11 4   101.10   -22 LegendNANA
06:00 -17.8 -21.0 76 15 7   101.00   -23 LegendNANA
07:00 -15.2 -19.4 70 10 10   100.97   -21 LegendNANA
08:00 -15.9 -18.5 81 12 5   100.92   -20 LegendNANA
09:00 -15.3 -18.7 76 8 4   100.84   -18 LegendNANA
10:00 -12.9 -15.9 78 13 7   100.82   -17 LegendNANA
11:00 -11.9 -14.5 81 25 5   100.74   -15 LegendNANA
12:00 -4.2 -9.8 65 7 32   100.62   -12 LegendNANA
13:00 -3.4 -9.7 62 9 34   100.55   -11 LegendNANA
14:00 -3.0 -10.1 58 9 35   100.48   -11 LegendNANA
15:00 -6.3 -10.1 74 13 9   100.49   -11 LegendNANA
16:00 -7.4 -11.5 72 14 12   100.42   -13 LegendNANA
17:00 -6.6 -12.7 62 14 12   100.33   -12 LegendNANA
18:00 -9.6 -14.0 70 8 4   100.24   -12 LegendNANA
19:00 -7.9 -14.1 61 8 5   100.14   -11 LegendNANA
20:00 -5.5 -13.5 53 2 13   99.97   -11 LegendNANA
21:00 -6.7 -13.0 61 26 8   99.87   -11 LegendNANA
22:00 -5.5 -13.4 54 5 19   99.66   -12 LegendNANA
23:00 -5.9 -13.5 55 12 7   99.56   -9 LegendNANA

Notes on Data Quality.

Legend

  • E = Estimated
  • M = Missing
  • NA = Not Available
  • ‡ = Partner data that is not subject to review by the National Climate Archives
Date modified: